Other Public Products
Issued by NWS Grand Forks, ND

Home | Current Version | Previous Version | Graphics & Text | Print | Product List | Glossary On
Versions: 1 2 3 4 5 6 7 8 9 10 11 12 13 14 15 16 17 18 19 20 21 22 23 24 25 26 27 28 29 30 31 32 33 34 35 36 37 38 39 40 41 42 43 44 45 46 47 48 49 50
000
FPUS83 KFGF 261210
OPUFGF
PRAIRIE TO PINES WEATHER ROUNDUP
NATIONAL WEATHER SERVICE EASTERN NORTH DAKOTA/GRAND FORKS ND
700 AM CDT WED APR 26 2017

 **SATELLITE DATA USED TO AUGMENT SKY COVER AT AUTOMATED STATIONS**
 *****  WEATHER ACROSS EASTERN NORTH DAKOTA  *****

CITY           SKY/WX    TMP DP  RH WIND       PRES   REMARKS
GRAND FORKS    CLOUDY    31  25  78 N24G32    29.82F WCI  17
6HR MIN TEMP:  31; 6HR MAX TEMP:  33;

GRAND FORKS AF CLOUDY    29  23  78 NE20G29   29.83S WCI  17
GRAND CITY NWS NOT AVBL
BUXTON         NOT AVBL
DEVILS LAKE    CLOUDY    28  23  81 NE20      29.87S WCI  15
6HR MIN TEMP:  28; 6HR MAX TEMP:  32;

FARGO          LGT SNOW  29  27  92 N20       29.75R FOG     WCI  16
6HR MIN TEMP:  29; 6HR MAX TEMP:  33; 6HR PCP:  0.10;

WAHPETON ARPT  CLOUDY    30  28  93 N15       29.70R WCI  19
$$

 *****  WEATHER ACROSS CENTRAL AND WESTERN NORTH DAKOTA  *****

CITY           SKY/WX    TMP DP  RH WIND       PRES   REMARKS
JAMESTOWN      CLOUDY    29  25  85 N20       29.80R WCI  16
6HR MIN TEMP:  29; 6HR MAX TEMP:  32;

BISMARCK       FAIR      31  23  72 N12       29.88S WCI  22
6HR MIN TEMP:  31; 6HR MAX TEMP:  37;

MINOT          FAIR      26  20  77 NW9       29.93S WCI  17
6HR MIN TEMP:  26; 6HR MAX TEMP:  32;

MINOT AFB      FAIR      26  20  80 N8        29.93S WCI  17
6HR MIN TEMP:  26; 6HR MAX TEMP:  31;

GARRISON         N/A     24  20  84 N10       29.91S WCI  14
6HR MIN TEMP:  24; 6HR MAX TEMP:  33;

WILLISTON      FAIR      23  18  81 N6        29.95F WCI  16
6HR MIN TEMP:  23; 6HR MAX TEMP:  34;

DICKINSON      CLOUDY    29  22  75 N7        29.87S WCI  22
6HR MIN TEMP:  29; 6HR MAX TEMP:  31;

HETTINGER      CLOUDY    30  23  75 N7        29.88S WCI  23
6HR MIN TEMP:  30; 6HR MAX TEMP:  31;

$$

 *****  OTHER OBSERVATIONS NORTHEAST NORTH DAKOTA  *****

CITY           SKY/WX    TMP DP  RH WIND       PRES   REMARKS
WALHALLA       NOT AVBL
LANGDON        FAIR      27  23  86 NE17G24   29.88S WCI  14
CAVALIER       CLOUDY    28  23  80 N15G23    29.89S WCI  17
GRAFTON        CLOUDY    30  27  86 N15G22    29.88F WCI  19
CANDO          NOT AVBL
FORT TOTTEN      N/A     28  24  85 NE9       29.95S WCI  19
ROLLA          FAIR      25  23  93 N16       29.90F WCI  12
RUGBY          NOT AVBL
 ***** THE ABOVE OBSERVATIONS ARE NON NWS ARE NOT QUALITY
        CONTROLLED AND MAY MIS-REPORT RAIN FOR SNOW...
$$

 *****  OTHER OBSERVATIONS SOUTHEAST NORTH DAKOTA *****

CITY           SKY/WX    TMP DP  RH WIND       PRES   REMARKS
COOPERSTOWN    CLOUDY    28  27  93 N26G32    29.81R WCI  13
VALLEY CITY    LGT SNOW  27  27 100 N15       29.79S WCI  15
OAKES          NOT AVBL
GWINNER        FOG       28  28 100 MISG      29.75R VSB 1/4
SHEYENNE NWR     N/A     28  26  93 N14       29.95S WCI  17
BUFFALO        NOT AVBL
WYNDMERE         N/A     30  28  93 N16         N/A  WCI  19
 ***** THE ABOVE OBSERVATIONS ARE NON NWS ARE NOT QUALITY
       CONTROLLED AND MAY MIS-REPORT RAIN FOR SNOW...
$$

  *****  WEATHER ACROSS NORTHERN MINNESOTA  *****

CITY           SKY/WX    TMP DP  RH WIND       PRES   REMARKS
FLAG ISLAND    CLOUDY    25  19  80 NE21G28   29.88F WCI  10
WARROAD        CLOUDY    27  23  86 NE22G29   29.85F WCI  12
ROSEAU         CLOUDY    28  23  80 NE17G23   29.85S WCI  16
HALLOCK        CLOUDY    30  23  74 NE15      29.87S WCI  19
THF RVR FALLS  CLOUDY    27  24  89 NE15      29.80S WCI  15
6HR MIN TEMP:  27; 6HR MAX TEMP:  30;

HALSTAD          N/A     28  27  94 N17         N/A  WCI  16
FOSSTON        CLOUDY    25  25 100 N12G20    29.74S WCI  14
BAUDETTE       CLOUDY    24  19  81 NE15G24   29.82F WCI  11
6HR MIN TEMP:  24; 6HR MAX TEMP:  28;

WASKISH        LGT SNOW  25  21  86 NE14      29.77F WCI  13
CROOKSTON      CLOUDY    30  27  86 NE14G21   29.81S WCI  20
$$
  *****  WEATHER ACROSS CENTRAL AND WEST MINNESOTA  *****

CITY           SKY/WX    TMP DP  RH WIND       PRES   REMARKS
BEMIDJI        LGT SNOW  24  22  91 N15       29.72S WCI  12
PARK RAPIDS    MIX PCPN  28  22  78 N14G20    29.66R WCI  17
6HR MIN TEMP:  28; 6HR MAX TEMP:  32; 6HR PCP:  0.19;

WADENA         MIX PCPN  28  28 100 N7        29.63R WCI  21
DETROIT LAKES  FLURRIES  30  28  93 NE8       29.68S WCI  23
MOORHEAD       LGT SNOW  28  27  93 N9        29.74R VSB 1   WCI  20
FERGUS FALLS   CLOUDY    32  32 100 N9        29.67R WCI  24
ELBOW LAKE     CLOUDY    32  31  95 N10       29.65R WCI  24
6HR MIN TEMP:  32; 6HR MAX TEMP:  35; 6HR PCP:  0.06;

MORRIS MN      MIX PCPN  34  32  93 N13       29.64R WCI  25
STAPLES        MIX PCPN  28  28 100 CALM      29.62S
WHEATON        LGT SNOW  30  30 100 NW15G21   29.71R WCI  19
$$
  *****  WEATHER ELSEWHERE ACROSS MINNESOTA  *****

CITY           SKY/WX    TMP DP  RH WIND       PRES   REMARKS
DULUTH         FRZ RAIN  32  30  92 NE14G22   29.61F WCI  22
6HR MIN TEMP:  31; 6HR MAX TEMP:  36; 6HR PCP:  0.17;

INTRNTL FALLS  SNOW      24  19  81 NE15      29.80F VSB 1/2 WCI  11
6HR MIN TEMP:  23; 6HR MAX TEMP:  26; 6HR PCP:  0.02;

ELY            LGT SNOW  23  21  93 N5        29.70S WCI  17
CLOQUET        MIX PCPN  32  28  86 NE7       29.60F
BRAINERD       MIX PCPN  30  28  92 N15       29.61S FOG     WCI  19
6HR MIN TEMP:  30; 6HR MAX TEMP:  32; 6HR PCP:  0.24;

HIBBING        MIX PCPN  25  23  92 N10G20    29.67F FOG     WCI  15
6HR MIN TEMP:  25; 6HR MAX TEMP:  29; 6HR PCP:  0.12;

ALEXANDRIA     CLOUDY    32  30  92 N13       29.62R WCI  22
6HR MIN TEMP:  32; 6HR MAX TEMP:  34; 6HR PCP:  0.12;

SAINT CLOUD    LGT RAIN  35  33  92 N9G20     29.56R
6HR MIN TEMP:  35; 6HR MAX TEMP:  42; 6HR PCP:  0.37;

MINNEAPOLIS    LGT RAIN  36  33  89 N12       29.49R
6HR MIN TEMP:  36; 6HR MAX TEMP:  47; 6HR PCP:  0.25;

$$

  *****  WEATHER ACROSS SOUTH DAKOTA  *****

CITY           SKY/WX    TMP DP  RH WIND       PRES   REMARKS
SIOUX FALLS    CLOUDY    35  34  96 NW14G22   29.65R
6HR MIN TEMP:  35; 6HR MAX TEMP:  37; 6HR PCP: TRACE;

BROOKINGS      CLOUDY    31  30  96 N13G21    29.65R WCI  21
WATERTOWN      CLOUDY    29  28  96 N18       29.66R WCI  16
6HR MIN TEMP:  29; 6HR MAX TEMP:  32; 6HR PCP: TRACE;

HURON          CLOUDY    31  29  92 N16       29.75R WCI  20
6HR MIN TEMP:  31; 6HR MAX TEMP:  32; 6HR PCP: TRACE;

SISSETON         N/A     30  29  96 N20       29.70R WCI  17
ABERDEEN       FLURRIES  30  26  85 N21       29.76R WCI  17
6HR MIN TEMP:  30; 6HR MAX TEMP:  32; 6HR PCP:  0.02;

MITCHELL       CLOUDY    33  30  88 NW18      29.74R WCI  22
PIERRE         CLOUDY    32  27  81 N16       29.80R WCI  21
6HR MIN TEMP:  32; 6HR MAX TEMP:  32;

MOBRIDGE       CLOUDY    34  23  64 N18G29    29.79S WCI  23
RAPID CITY     CLOUDY    28  23  81 NW17      29.86R WCI  16
6HR MIN TEMP:  27; 6HR MAX TEMP:  28; 6HR PCP: TRACE;

$$

  *****  SOME WEATHER IN NEARBY STATES *****

CITY           SKY/WX    TMP DP  RH WIND       PRES   REMARKS
GLASGOW MT     CLOUDY    34  24  67 SE9       29.89S
6HR MIN TEMP:  33; 6HR MAX TEMP:  37;

GREAT FALLS MT FAIR      32  30  92 E5        29.73F
6HR MIN TEMP:  32; 6HR MAX TEMP:  38;

CHEYENNE WY    FAIR      27  22  81 VRB3      29.79F
6HR MIN TEMP:  27; 6HR MAX TEMP:  33;

SCOTTSBLUFF NE CLOUDY    32  26  78 N3        29.85R
6HR MIN TEMP:  31; 6HR MAX TEMP:  33;

OMAHA NE       CLOUDY    37  32  82 NW24G30   29.63R
6HR MIN TEMP:  37; 6HR MAX TEMP:  42; 6HR PCP: TRACE;

DES MOINES IA  LGT RAIN  44  41  89 W17       29.50S
6HR MIN TEMP:  44; 6HR MAX TEMP:  49; 6HR PCP:  0.02;

DAVENPORT IA   LGT RAIN  60  58  92 S8        29.42R
6HR MIN TEMP:  60; 6HR MAX TEMP:  70; 6HR PCP:  0.10;

CHICAGO IL     PTSUNNY   65  55  70 S15G22    29.47R
6HR MIN TEMP:  64; 6HR MAX TEMP:  68;

EAU CLAIRE WI  CLOUDY    42  40  92 NE9       29.42S
6HR MIN TEMP:  42; 6HR MAX TEMP:  50; 6HR PCP:  0.09;

LA CROSSE WI   CLOUDY    57  55  93 NW5       29.36S FOG
6HR MIN TEMP:  56; 6HR MAX TEMP:  58; 6HR PCP:  0.07;

$$

  *****  SOME NATIONAL WEATHER *****

CITY           SKY/WX    TMP DP  RH WIND       PRES   REMARKS
LA GUARDIA NY  LGT RAIN  55  53  93 NE7       29.75S FOG


USA.gov is the U.S. government's official web portal to all federal, state and local government web resources and services.